Location: Unspecified
(22.6800°N, 112.2000°E)
Time: 13:53:21
(UTC+08:00)

S-56A Canister/Altair - Visible Passes

Search period start: 31 July 2021 00:00
Search period end: 10 August 2021 00:00
Orbit: 631 x 2501 km, 38.9° (Epoch: 30 July)

Date Brightness Start Highest point End Pass type
(mag) Time Alt. Az. Time Alt. Az. Time Alt. Az.
31 Jul 10.2 20:02:47 10° NW 20:17:11 51° NNE 20:26:56 15° E visible
31 Jul 9.1 22:10:39 10° WNW 22:24:09 78° SW 22:24:21 78° SSW visible
01 Aug 11.2 00:21:01 10° W 00:21:45 11° W 00:21:45 11° W visible
01 Aug 10.4 19:28:58 10° NW 19:43:28 49° NNE 19:55:06 10° E visible
01 Aug 9.1 21:36:47 10° WNW 21:50:57 86° SW 21:53:14 64° SE visible
01 Aug 10.8 23:46:23 10° W 23:50:38 19° W 23:50:38 19° W visible
02 Aug 9.4 21:02:57 10° NW 21:17:38 86° NE 21:22:09 45° ESE visible
02 Aug 10.5 23:11:59 10° WNW 23:19:34 28° WSW 23:19:34 28° WSW visible
03 Aug 9.7 20:29:10 10° NW 20:44:11 79° NNE 20:51:08 31° ESE visible
03 Aug 10.1 22:37:44 10° WNW 22:48:33 37° WSW 22:48:33 37° WSW visible
04 Aug 9.9 19:55:26 10° NW 20:10:38 73° NNE 20:20:10 19° ESE visible
04 Aug 9.8 22:03:36 10° WNW 22:16:24 45° SW 22:17:35 44° SSW visible
05 Aug 10.1 19:21:45 10° NW 19:36:59 68° NNE 19:49:14 10° ESE visible
05 Aug 9.7 21:29:34 10° WNW 21:43:17 53° SW 21:46:40 43° S visible
06 Aug 9.9 20:55:38 10° WNW 21:10:04 61° SW 21:15:49 35° SSE visible
06 Aug 11.1 23:08:16 10° W 23:13:15 14° WSW 23:13:15 14° WSW visible
07 Aug 9.9 20:21:47 10° WNW 20:36:44 69° SW 20:45:00 24° SE visible
07 Aug 10.8 22:32:52 10° W 22:41:08 19° SW 22:42:27 19° SW visible
08 Aug 10.0 19:48:03 10° WNW 20:03:17 76° SW 20:14:16 15° SE visible
08 Aug 10.7 21:58:01 10° W 22:08:09 24° SW 22:11:43 21° SSW visible
09 Aug 10.1 19:14:24 10° WNW 19:29:44 84° SW 19:42:42 10° SE visible
09 Aug 10.6 21:23:29 10° WNW 21:35:04 29° SW 21:41:02 20° S visible
